Location: Poughquag
(41.6090°N, 73.6820°W)
Time: 03:27:32
(UTC-04:00)

Vanguard 1 Rocket - Pass Details

Date: 01 June 2020
Orbit: 653 x 4224 km, 34.3° (Epoch: 06 July)

Event Time Altitude Azimuth Distance (km) Brightness Sun altitude
Rises 01:40:00 0° 245° (WSW) 8,095 11.9 -25.3°
Reaches altitude 10° 01:46:14 10° 242° (WSW) 6,696 11.4 -25.1°
Maximum altitude 02:05:08 58° 171° (S) 2,608 9.3 -24.1°
Drops below altitude 10° 02:14:52 10° 96° (E) 3,669 10.6 -23.5°
Sets 02:17:15 0° 92° (E) 4,338 11.1 -23.3°
